This is the latest recevied weather packets stored in our database for station/object KY4EF. If no packets are shown the sender has not sent any weather packets the latest 1 day(s).
| Time | Temp. | Humidity | Pressure | Rain* | Wind** | Luminosity | Snow |
|---|---|---|---|---|---|---|---|
| 1778052330 | 18.33° C | 65% | 1011.2 hPa | 0 mm | - | 0 W/m² | - |
| 1778051725 | 18.89° C | 63% | 1011.1 hPa | 0 mm | - | 0 W/m² | - |
| 1778051422 | 18.89° C | 63% | 1011.3 hPa | 0 mm | - | 0 W/m² | - |
| 1778050515 | 18.33° C | 62% | 1011.4 hPa | 0 mm | - | 0 W/m² | - |
| 1778049908 | 18.89° C | 62% | 1012 hPa | 0 mm | - | 0 W/m² | - |
| 1778048697 | 18.33° C | 61% | 1012 hPa | 0 mm | - | 0 W/m² | - |
| 1778048393 | 18.33° C | 62% | 1012.3 hPa | 0 mm | - | 0 W/m² | - |
| 1778048089 | 18.33° C | 61% | 1012.4 hPa | 0 mm | - | 0 W/m² | - |
| 1778047787 | 18.33° C | 59% | 1012.2 hPa | 0 mm | - | 0 W/m² | - |
| 1778047182 | 18.33° C | 61% | 1011.8 hPa | 0 mm | - | 0 W/m² | - |
| 1778046879 | 18.33° C | 59% | 1012.3 hPa | 0 mm | - | 0 W/m² | - |
| 1778045968 | 18.33° C | 58% | 1012.6 hPa | 0 mm | - | 0 W/m² | - |
| 1778045667 | 18.33° C | 60% | 1012.8 hPa | 0 mm | - | 0 W/m² | - |
| 1778045365 | 18.33° C | 59% | 1012.5 hPa | 0 mm | - | 0 W/m² | - |
| 1778045063 | 18.33° C | 58% | 1012.7 hPa | 0 mm | - | 0 W/m² | - |
| 1778044761 | 18.33° C | 59% | 1012.6 hPa | 0 mm | - | 0 W/m² | - |
| 1778044457 | 18.33° C | 59% | 1012.5 hPa | 0 mm | - | 0 W/m² | - |
| 1778044154 | 18.33° C | 61% | 1012.4 hPa | 0 mm | - | 0 W/m² | - |
| 1778043852 | 18.33° C | 59% | 1012.3 hPa | 0 mm | - | 0 W/m² | - |
| 1778043549 | 18.33° C | 58% | 1012 hPa | 0 mm | - | 0 W/m² | - |
| 1778042640 | 18.33° C | 62% | 1012 hPa | 0 mm | - | 0 W/m² | - |
| 1778042337 | 18.33° C | 59% | 1012 hPa | 0 mm | - | 0 W/m² | - |
| 1778042034 | 18.33° C | 58% | 1012.3 hPa | 0 mm | - | 0 W/m² | - |
| 1778041732 | 18.33° C | 59% | 1012.2 hPa | 0 mm | - | 0 W/m² | - |
| 1778041431 | 18.33° C | 60% | 1012.2 hPa | 0 mm | - | 0 W/m² | - |
* Rain latest hour (hover to see other rain measurements)
** Current wind speed in m/s (hover to see current wind gust speed)